021  
ASUS42 KKEY 241111  
RWRKEY  
 
FLORIDA REGIONAL WEATHER ROUNDUP FOR THE FLORIDA KEYS  
NATIONAL WEATHER SERVICE KEY WEST FLORIDA  
700 AM EDT MON SEP 24 2018  
   
..SOUTH FLORIDA AND THE KEYS
 
 
 
CITY SKY/WX TMP DP RH WIND PRES REMARKS
 
FORT MYERS FAIR 76 75 97 E6 29.98R  
SW REGIONAL AP FAIR 76 75 97 NE6 29.99R  
NAPLES FAIR 76 75 97 NE3 29.98R  
MIAMI FAIR 81 76 84 NE5 29.98R  
WEST KENDALL FAIR 78 75 90 CALM 29.97R  
HOMESTEAD FAIR 79 75 90 CALM 29.96R  
MARATHON FAIR 78 76 93 CALM 29.96R  
KEY WEST INTL FAIR 84 73 69 E7 29.97R HX 90  
   
..INTERNATIONAL WEATHER
 
 
 
CITY SKY/WX TMP DP RH WIND PRES REMARKS
 
NASSAU BAHAMAS PTCLDY 75 73 94 CALM 29.98R  
CANCUN MEXICO MOCLDY 77 77 100 CALM 29.92R  
COZUMEL MEXICO PTCLDY 77 75 94 CALM 29.89R  
 
ADJACENT COASTAL WATERS...  
 
STATION/POSITION TIME SKY/WX TEMP WIND PRES WAVE
 
AIR SEA DIR/SP/G HT/PER  
(UTC) (F) (DEG/KT/KT) (MB) (FT/S)  
PULASKI SHOAL LI 1100 83 100/ 7/ 7 1014.9R  
SAND KEY 1050 83 1014.6R  
SOMBRERO KEY 1050 84 70/ 7/ 9 1013.8R  
LONG KEY 1100 83 86 60/ 8/ 9 1014.6R  
MOLASSES REEF 0900 83 86 40/ 4/ 5 1014.3  
FOWEY ROCKS 1100 83 85 60/ 10/ 10 1015.5R  
BUOY 42079 1100 85 N/A 1/ 5  
BUOY 42097 1100 84 N/A 1/ 3  
 

 
 
 
CLICK HERE TO GO TO PREVIOUS BULLETINS.

The Nexlab FL Page Main Text Page